TWY10 LTFM-KDEN

Flight info

Callsign TWY10
Flight time N/A
Altitude 36000
Route TUDBU Q26 ETUBA DCT DEGET DCT PATAK DCT ODNEM DCT ELMEK DCT VEXIL DCT KATCE DCT MIMVA DCT OTBED L60 PENIL M144 BAGSO DCT RESNO/M083F380 DCT 56N020W 56N030W 56N040W 55N050W DCT LOMSI/N0486F400 DCT SPOTE DCT YMO/N0484F430 DCT 50N088W DCT FAR DCT GILTE DCT NYTRO AALLE4
Aircraft GLF5/M-SFGHIRWXY/S

Departure

Time 2026-05-04 04:40
Airport İstanbul Airport (LTFM)

Arrival

Time N/A
Airport Denver International Airport (KDEN)
Time Latitude Longitude Altitude Speed Heading
2026-05-04 04:22 41.27483 28.73511 333 ft 0 kts
2026-05-04 04:29 41.27474 28.73511 333 ft 2 kts
2026-05-04 04:29 41.27459 28.73511 333 ft 2 kts
2026-05-04 04:29 41.27444 28.73511 333 ft 2 kts
2026-05-04 04:30 41.27429 28.73511 333 ft 2 kts
2026-05-04 04:30 41.27415 28.73511 333 ft 0 kts
2026-05-04 04:30 41.27404 28.73513 333 ft 2 kts 338°
2026-05-04 04:30 41.27392 28.73524 333 ft 2 kts 303°
2026-05-04 04:31 41.27387 28.73542 333 ft 1 kts 270°
2026-05-04 04:31 41.27387 28.73546 333 ft 0 kts 269°
2026-05-04 04:33 41.27387 28.73544 333 ft 1 kts 269°
2026-05-04 04:34 41.27387 28.73525 333 ft 1 kts 269°
2026-05-04 04:34 41.27386 28.73506 333 ft 2 kts 269°
2026-05-04 04:34 41.27386 28.73452 333 ft 10 kts 270°
2026-05-04 04:34 41.27385 28.73334 333 ft 14 kts 269°
2026-05-04 04:35 41.27383 28.73185 333 ft 16 kts 268°
2026-05-04 04:35 41.27380 28.73048 333 ft 13 kts 270°
2026-05-04 04:35 41.27334 28.72980 333 ft 9 kts 183°
2026-05-04 04:35 41.27264 28.72982 333 ft 11 kts 179°
2026-05-04 04:36 41.27170 28.72984 333 ft 15 kts 178°
2026-05-04 04:36 41.27045 28.72986 333 ft 19 kts 182°
2026-05-04 04:36 41.26903 28.72989 333 ft 19 kts 178°
2026-05-04 04:36 41.26775 28.72991 333 ft 17 kts 179°
2026-05-04 04:37 41.26468 28.72998 334 ft 14 kts 179°
2026-05-04 04:37 41.26366 28.72999 333 ft 14 kts 179°
2026-05-04 04:38 41.26261 28.73002 334 ft 10 kts 179°
2026-05-04 04:38 41.26210 28.72971 334 ft 1 kts 244°
2026-05-04 04:38 41.26209 28.72971 334 ft 0 kts 244°
2026-05-04 04:38 41.26206 28.72957 333 ft 3 kts 257°
2026-05-04 04:39 41.26204 28.72897 333 ft 7 kts 269°
2026-05-04 04:39 41.26203 28.72831 334 ft 7 kts 269°
2026-05-04 04:39 41.26213 28.72775 334 ft 4 kts 322°
2026-05-04 04:39 41.26231 28.72774 334 ft 0 kts
2026-05-04 04:40 41.26306 28.72773 334 ft 38 kts 359°
2026-05-04 04:40 41.26809 28.72765 334 ft 102 kts 358°
2026-05-04 04:40 41.27714 28.72745 385 ft 148 kts
2026-05-04 04:40 41.28728 28.72785 1022 ft 150 kts
2026-05-04 04:41 41.29777 28.72891 1790 ft 151 kts
2026-05-04 04:41 41.30794 28.73039 2169 ft 162 kts
2026-05-04 04:41 41.31953 28.73213 2673 ft 172 kts
2026-05-04 04:41 41.33203 28.73406 3136 ft 185 kts
2026-05-04 04:42 41.34501 28.73612 3562 ft 203 kts
2026-05-04 04:42 41.36022 28.73865 3953 ft 225 kts
2026-05-04 04:42 41.37593 28.74131 4674 ft 233 kts
2026-05-04 04:42 41.39206 28.74412 5511 ft 236 kts
2026-05-04 04:43 41.40828 28.74522 6254 ft 244 kts 351°
2026-05-04 04:43 41.42370 28.73470 7022 ft 255 kts 329°
2026-05-04 04:43 41.43795 28.72007 7797 ft 260 kts 327°
2026-05-04 04:43 41.44821 28.70935 8368 ft 262 kts 327°
2026-05-04 04:44 41.46255 28.69436 9144 ft 265 kts 327°
2026-05-04 04:44 41.47704 28.67925 9914 ft 268 kts 327°
2026-05-04 04:44 41.49174 28.66393 10616 ft 272 kts 327°
2026-05-04 04:44 41.50671 28.64837 11411 ft 274 kts 327°
2026-05-04 04:45 41.52200 28.63251 12111 ft 278 kts 327°
2026-05-04 04:45 41.53744 28.61687 12884 ft 279 kts 333°
2026-05-04 04:45 41.55550 28.60940 13544 ft 275 kts 354°